EHI
26 28 26 20 14 10 9 7 4 2 1 3 7 14 19 16 8 8 11 6 1 0 0 0 0 0 0 0 0 0 0 0 0 0 0 0 0 0
26 28 28 22 14 10 9 7 5 3 1 3 6 11 16 13 8 9 11 6 1 0 0 0 0 0 0 0 0 0 0 0 0 0 0 0 0 0
25 27 28 23 15 11 9 7 5 5 3 3 4 8 13 12 9 9 9 6 3 1 0 0 0 0 0 0 0 0 0 0 0 0 0 0 0 0
23 24 24 21 16 13 10 8 7 7 5 4 4 7 10 11 11 9 7 5 4 3 1 0 0 0 0 0 0 0 0 0 0 0 0 0 0 0
21 21 20 19 17 14 11 11 10 9 7 5 6 9 10 10 11 10 7 5 5 3 2 1 0 0 0 0 0 0 0 0 0 0 0 0 0 0
20 19 18 16 14 12 11 12 12 10 7 5 7 10 10 10 10 9 7 7 5 4 3 1 0 0 0 0 0 0 0 0 0 0 0 0 0 0
19 18 15 12 10 7 7 8 9 8 6 5 7 8 9 8 8 6 5 4 5 6 5 2 1 0 0 0 0 0 0 0 0 0 0 0 0 0
18 15 12 9 7 4 3 4 4 4 4 5 6 6 6 6 5 3 2 2 4 7 7 4 2 1 0 0 0 0 0 0 0 0 0 0 0 0
16 14 11 8 7 6 5 3 3 2 2 3 4 4 4 5 4 2 1 1 3 6 7 5 3 1 0 0 0 0 0 0 0 0 0 0 0 0
14 13 12 10 8 7 6 6 5 5 3 2 3 3 3 3 2 1 1 1 1 3 4 4 3 2 1 0 0 0 0 0 0 0 0 0 0 0
12 11 10 9 6 4 4 5 5 5 3 2 2 1 1 1 1 0 1 1 0 1 3 4 3 2 1 1 1 0 0 0 0 0 0 0 0 0
10 9 7 5 3 1 2 3 2 2 2 2 2 1 1 0 0 0 0 0 0 1 3 5 4 3 3 2 1 0 0 0 0 0 0 0 0 0
8 8 6 2 1 0 1 1 0 0 1 2 2 2 1 1 1 1 1 1 0 1 3 5 5 5 4 2 1 0 0 0 0 0 0 0 0 0
7 6 4 1 0 0 0 0 0 0 0 1 2 1 1 1 1 2 3 3 2 3 4 4 4 4 3 1 1 0 0 0 0 0 0 0 0 0
3 2 1 0 0 0 0 0 0 0 0 1 1 0 0 1 2 3 4 5 5 4 4 4 3 3 2 1 0 0 0 0 0 0 0 0 0 0
1 1 1 0 0 0 0 0 0 0 0 0 0 0 1 2 3 3 3 4 4 4 3 3 3 2 1 0 0 0 0 0 0 0 0 0 0 0
1 1 1 0 0 0 0 0 0 0 0 0 0 0 1 2 2 2 1 1 1 1 1 2 2 1 0 0 0 0 0 0 0 0 0 0 0 0
0 1 1 0 0 0 0 0 0 0 0 0 0 0 0 1 1 1 0 0 0 0 0 1 1 0 0 0 0 0 0 0 0 0 0 0 0 0
0 0 0 0 0 0 0 0 0 0 1 0 0 0 0 0 0 0 0 0 0 0 0 0 0 0 0 0 0 0 0 0 0 0 0 0 0 0
0 0 0 0 0 0 0 0 0 0 0 0 0 0 0 0 0 0 0 0 0 0 0 0 0 0 0 0 0 0 0 0 0 0 0 0 0 0
0 0 0 0 0 0 0 0 0 0 0 0 0 0 0 0 0 0 0 0 0 0 0 0 0 0 0 0 0 0 0 0 0 0 0 0 0 0
0 0 0 0 0 0 0 0 0 0 0 0 0 0 0 0 0 0 0 0 0 0 0 0 0 0 0 0 0 0 0 0 0 0 0 0 0 0
0 0 0 0 0 0 0 0 0 0 0 0 0 0 0 0 0 0 0 0 0 0 0 0 0 0 0 0 0 0 0 0 0 0 0 0 0 0
Wind_Speed
4 4 3 3 3 2 2 2 2 2 2 2 2 3 3 2 5 5 5 10 12 12 11 10 10 9 9 9 8 8 8 8 7 7 8 8 8 9
3 3 3 3 3 2 2 2 2 2 2 2 2 1 2 3 6 4 4 9 12 12 12 11 10 10 10 10 9 9 9 8 8 8 8 8 8 8
4 4 4 3 2 2 2 2 2 2 2 2 1 1 1 1 3 3 2 4 6 12 12 12 11 11 10 10 9 9 8 8 8 8 9 9 9 9
4 3 3 3 3 3 2 2 2 2 2 3 2 1 2 2 3 3 3 4 4 8 12 12 11 10 10 9 9 8 8 8 8 7 7 8 8 8
3 3 3 2 2 2 2 2 2 2 1 2 2 1 1 1 2 2 3 2 3 3 8 9 9 9 9 9 8 8 8 7 7 6 6 6 6 7
2 2 2 2 2 2 2 2 2 1 1 1 1 1 1 1 1 2 2 1 2 2 2 4 6 8 8 8 8 7 7 6 6 6 6 6 6 6
2 1 0 1 1 0 1 0 1 1 0 0 1 0 1 1 1 2 2 1 2 1 1 1 2 2 3 4 5 6 6 5 5 5 5 5 5 5
1 0 1 1 2 3 3 3 2 1 1 0 1 1 1 1 2 2 1 1 2 1 1 1 1 2 2 3 4 6 5 5 5 5 5 5 5 5
1 1 1 0 2 2 3 3 4 4 2 1 2 2 2 2 2 2 1 1 2 2 1 2 0 0 0 1 5 6 6 5 4 4 4 4 4 4
2 2 1 2 3 2 3 3 3 3 2 2 2 2 3 3 3 2 2 2 2 1 1 2 1 1 1 1 2 5 5 4 4 4 4 4 4 5
3 3 3 3 4 4 3 3 3 3 5 6 5 4 4 5 5 3 3 2 2 2 2 1 1 1 1 0 0 2 3 3 3 3 3 4 5 4
2 3 5 4 5 5 3 2 2 2 2 3 3 3 2 3 4 2 2 2 2 2 3 2 2 1 1 1 0 1 0 2 2 3 3 4 4 3
2 3 4 6 6 5 4 3 2 2 1 1 1 1 2 2 3 2 2 1 2 2 2 2 2 2 1 1 1 0 1 0 0 1 3 4 4 3
3 4 4 6 7 7 5 5 4 3 1 1 2 2 2 2 2 2 2 1 1 1 1 2 1 2 2 2 2 1 1 1 1 1 1 2 3 4
4 5 6 6 5 5 5 5 4 2 2 2 2 2 2 1 1 1 1 1 2 1 1 1 1 1 1 2 2 2 2 2 1 1 2 2 2 1
3 4 4 4 3 3 3 2 2 2 2 2 2 2 1 1 2 2 1 1 1 2 2 2 2 2 2 2 2 2 2 2 2 2 3 2 2 1
2 2 2 2 2 2 2 3 3 3 3 3 3 3 3 3 2 2 2 2 2 2 3 3 3 2 2 2 2 2 2 2 2 2 3 3 3 2
3 2 3 3 3 3 3 3 3 3 3 3 3 3 3 3 3 3 3 3 2 2 2 3 3 3 3 2 3 2 3 3 3 3 3 3 4 2
3 3 3 3 4 4 3 4 4 4 3 3 4 3 3 3 3 3 2 3 3 3 3 3 3 3 4 4 3 3 3 3 3 3 3 3 4 3
4 4 4 4 4 4 5 4 4 4 4 4 4 4 4 4 4 4 4 4 4 3 3 3 3 3 3 4 4 3 4 3 3 3 3 3 3 4
5 5 5 5 5 4 4 4 4 4 4 4 4 5 4 4 4 4 4 5 4 3 4 3 3 4 3 3 3 3 2 4 4 3 4 4 4 4
5 5 5 5 4 4 4 4 4 5 5 5 5 4 4 4 4 5 5 4 4 4 4 4 4 4 3 4 4 5 4 4 4 6 5 5 4 4
5 5 5 5 4 4 4 5 6 5 5 5 5 4 4 4 3 3 4 4 4 5 5 5 4 4 4 4 4 4 6 6 5 4 4 5 7 8
Wind_Direction
226 223 232 242 244 249 259 235 215 245 262 239 207 187 180 165 169 190 184 193 196 200 203 208 213 217 222 227 230 230 229 228 229 233 237 238 237 240
228 235 232 247 247 238 242 256 234 228 248 262 239 202 170 182 173 206 202 191 195 199 203 207 212 216 220 225 228 229 228 228 230 234 236 238 238 239
234 228 227 235 249 248 234 236 236 219 233 269 274 263 179 203 173 213 191 186 198 204 206 208 210 215 219 223 226 227 228 230 234 236 238 239 240 240
243 240 240 234 238 259 261 245 240 231 218 250 265 257 215 200 192 201 210 213 215 205 205 208 209 213 217 220 221 223 225 229 231 234 238 241 242 244
234 241 243 239 242 244 251 264 264 256 214 230 248 233 239 240 205 224 251 253 247 211 197 206 212 214 214 215 215 216 218 223 229 235 239 241 242 245
228 245 251 245 239 241 243 258 257 265 251 238 246 240 247 258 188 229 258 264 269 252 213 192 200 211 217 215 214 213 215 220 228 236 238 236 237 242
235 223 153 63 46 205 244 270 268 250 249 303 286 275 300 327 268 251 252 261 257 254 273 218 175 190 205 217 220 216 211 214 220 230 237 239 241 244
325 314 153 112 104 107 99 75 60 8 358 37 349 346 341 331 296 284 275 282 281 296 283 279 176 185 193 187 190 189 192 201 213 223 232 236 241 245
23 10 311 1 108 109 104 85 66 54 65 71 34 353 342 334 323 317 308 286 268 274 263 267 291 309 290 186 166 169 174 183 197 214 227 231 233 241
39 38 39 28 31 57 94 86 72 59 79 91 82 30 13 356 341 322 297 299 286 321 324 268 283 295 344 54 172 177 179 189 200 208 220 231 233 236
65 56 63 58 37 55 80 83 76 68 69 81 85 71 52 32 19 13 351 338 317 329 348 320 321 323 326 343 101 165 189 210 225 230 237 246 245 243
79 63 54 56 64 66 74 77 71 54 51 55 55 42 49 45 39 29 1 338 326 330 356 349 326 340 310 279 222 95 206 252 240 253 257 259 256 246
69 64 57 71 72 66 62 65 75 66 46 54 57 48 44 47 45 33 22 359 337 327 341 345 332 336 298 298 312 287 219 236 241 275 260 265 257 236
58 63 63 71 72 65 62 57 54 46 38 49 47 43 42 42 32 8 2 354 317 262 320 348 341 337 327 321 322 324 321 325 316 295 283 272 250 241
71 75 79 85 87 77 65 49 42 37 34 41 41 37 33 32 18 22 18 2 342 350 18 357 333 326 320 313 317 320 326 326 327 329 322 303 275 253
96 101 97 91 81 72 64 53 41 34 31 33 22 24 27 31 35 29 14 357 10 3 1 6 355 338 323 319 317 319 322 315 334 339 330 314 301 267
97 105 96 87 81 66 58 58 53 40 34 27 20 13 18 25 25 15 2 355 4 6 358 358 358 345 328 323 325 324 324 327 322 317 313 305 294 280
77 77 68 59 56 54 50 50 49 39 19 15 17 17 20 24 20 8 7 2 359 3 358 351 348 339 336 355 357 340 336 327 319 308 306 306 304 302
75 68 59 53 48 43 39 42 39 33 22 25 26 18 16 18 18 2 5 359 356 356 350 350 359 355 343 334 324 333 323 318 320 315 309 306 300 303
68 64 58 55 50 45 41 38 38 35 28 25 26 19 15 14 13 6 6 1 350 347 349 356 1 348 323 311 308 312 321 319 315 311 310 309 300 300
63 62 57 56 54 47 41 41 44 41 32 29 28 19 11 7 6 359 357 354 350 345 352 351 331 319 304 311 318 324 318 312 301 294 301 306 307 306
60 61 62 58 53 46 43 40 41 41 32 27 22 10 2 1 1 356 353 350 350 350 349 340 331 331 332 337 332 331 330 324 304 289 283 282 285 291
53 50 56 56 48 45 45 43 43 38 30 18 9 358 353 351 348 345 342 343 349 349 344 342 341 336 335 335 330 329 332 333 330 325 313 290 278 273